QPF
0.01 0.01 0.01 0.01 0.01 0.01 0.01 0.02 0.02 0.02 0.02 0.02 0.02 0.02 0.03 0.05 0.06 0.05 0.06 0.08 0.08 0.08 0.04 0.08 0.09 0.08 0.07 0.06 0.02 0.01 0.01 0.01 0.01 0.02 0.02 0.03 0.05 0.06 0.04 0.03 0.02 0.02 0.02 0.01
0.01 0.02 0.02 0.01 0.01 0.01 0.01 0.02 0.02 0.02 0.03 0.03 0.02 0.01 0.02 0.03 0.04 0.05 0.05 0.07 0.09 0.08 0.07 0.09 0.11 0.10 0.08 0.04 0.02 0.01 0.01 0.01 0.01 0.01 0.02 0.04 0.06 0.06 0.05 0.04 0.03 0.02 0.02 0.01
0.01 0.01 0.01 0.02 0.02 0.01 0.01 0.02 0.02 0.03 0.03 0.03 0.02 0.02 0.02 0.04 0.05 0.06 0.05 0.05 0.05 0.05 0.07 0.06 0.09 0.11 0.09 0.05 0.02 0.01 0.01 0.01 0.01 0.01 0.03 0.05 0.05 0.04 0.05 0.05 0.03 0.02 0.03 0.02
0.03 0.03 0.03 0.03 0.02 0.01 0.01 0.02 0.02 0.02 0.01 0.01 0.02 0.03 0.03 0.03 0.05 0.05 0.06 0.04 0.03 0.04 0.04 0.04 0.07 0.09 0.09 0.05 0.02 0.01 0.02 0.02 0.02 0.02 0.03 0.04 0.04 0.05 0.05 0.04 0.04 0.03 0.02 0.02
0.04 0.05 0.05 0.03 0.02 0.02 0.01 0.02 0.03 0.03 0.01 0.01 0.02 0.05 0.05 0.03 0.03 0.04 0.05 0.08 0.06 0.05 0.05 0.05 0.06 0.08 0.08 0.05 0.03 0.02 0.02 0.02 0.02 0.02 0.01 0.02 0.03 0.03 0.04 0.04 0.04 0.04 0.02 0.01
0.04 0.05 0.05 0.03 0.02 0.01 0.01 0.02 0.03 0.02 0.02 0.02 0.02 0.05 0.08 0.05 0.05 0.10 0.12 0.14 0.10 0.06 0.06 0.06 0.05 0.07 0.06 0.03 0.02 0.02 0.02 0.02 0.02 0.02 0.01 0.01 0.02 0.02 0.03 0.04 0.04 0.04 0.02 0.01
0.03 0.04 0.03 0.03 0.02 0.01 0.02 0.03 0.03 0.02 0.02 0.02 0.03 0.03 0.03 0.03 0.05 0.07 0.09 0.16 0.10 0.06 0.06 0.05 0.05 0.05 0.04 0.03 0.02 0.02 0.02 0.02 0.02 0.01 0.01 0.01 0.01 0.02 0.02 0.03 0.03 0.03 0.02 0.01
0.05 0.05 0.04 0.04 0.04 0.05 0.03 0.03 0.03 0.02 0.02 0.02 0.03 0.02 0.01 0.02 0.02 0.03 0.03 0.06 0.07 0.08 0.06 0.05 0.04 0.03 0.03 0.03 0.02 0.02 0.02 0.02 0.01 0.01 0.01 0.01 0.02 0.02 0.03 0.03 0.02 0.03 0.02 0.01
0.03 0.04 0.04 0.03 0.03 0.03 0.03 0.03 0.03 0.02 0.02 0.02 0.02 0.02 0.01 0.02 0.03 0.03 0.03 0.03 0.04 0.07 0.06 0.04 0.03 0.03 0.03 0.02 0.02 0.02 0.02 0.02 0.02 0.02 0.02 0.02 0.02 0.02 0.02 0.02 0.02 0.03 0.02 0.02
0.02 0.01 0.02 0.01 0.02 0.02 0.03 0.02 0.02 0.02 0.01 0.01 0.02 0.02 0.01 0.02 0.03 0.03 0.03 0.03 0.04 0.06 0.05 0.04 0.03 0.02 0.02 0.01 0.01 0.01 0.01 0.02 0.02 0.02 0.02 0.02 0.02 0.02 0.02 0.01 0.02 0.04 0.03 0.02
0.02 0.02 0.02 0.02 0.05 0.04 0.02 0.02 0.03 0.02 0.01 0.01 0.01 0.02 0.01 0.01 0.02 0.03 0.03 0.02 0.02 0.02 0.03 0.02 0.02 0.02 0.01 0.01 0.01 0.01 0.02 0.02 0.02 0.02 0.02 0.03 0.02 0.02 0.01 0.01 0.02 0.03 0.02 0.01
0.01 0.02 0.02 0.02 0.03 0.03 0.03 0.03 0.04 0.03 0.02 0.02 0.02 0.01 0.01 0.01 0.01 0.02 0.03 0.02 0.02 0.02 0.02 0.02 0.02 0.02 0.01 0.01 0.01 0.01 0.02 0.02 0.02 0.02 0.02 0.02 0.01 0.02 0.02 0.02 0.02 0.02 0.02 0.01
0.01 0.01 0.01 0.01 0.01 0.02 0.03 0.04 0.04 0.03 0.02 0.02 0.02 0.01 0.01 0.01 0.02 0.02 0.02 0.01 0.02 0.01 0.02 0.02 0.02 0.01 0.01 0.02 0.01 0.02 0.02 0.01 0.01 0.01 0.02 0.02 0.02 0.02 0.02 0.02 0.01 0.01 0.01 0.01
0.00 0.00 0.01 0.01 0.01 0.01 0.02 0.02 0.03 0.03 0.02 0.01 0.01 0.02 0.01 0.01 0.01 0.01 0.02 0.02 0.01 0.01 0.01 0.02 0.01 0.01 0.02 0.02 0.02 0.02 0.02 0.01 0.01 0.01 0.02 0.02 0.02 0.02 0.02 0.02 0.01 0.00 0.00 0.01
0.00 0.00 0.00 0.01 0.02 0.02 0.02 0.02 0.02 0.02 0.02 0.02 0.02 0.03 0.02 0.01 0.01 0.01 0.02 0.02 0.02 0.01 0.01 0.01 0.01 0.02 0.03 0.02 0.02 0.02 0.01 0.02 0.02 0.03 0.03 0.03 0.02 0.02 0.02 0.02 0.01 0.00 0.00 0.01
0.00 0.00 0.00 0.02 0.03 0.02 0.02 0.02 0.02 0.02 0.01 0.01 0.02 0.02 0.01 0.01 0.01 0.01 0.01 0.01 0.01 0.01 0.01 0.01 0.01 0.02 0.03 0.03 0.02 0.02 0.02 0.03 0.03 0.04 0.04 0.03 0.02 0.02 0.02 0.01 0.01 0.01 0.01 0.01
0.00 0.01 0.01 0.01 0.02 0.02 0.02 0.01 0.01 0.01 0.01 0.01 0.02 0.02 0.01 0.01 0.00 0.00 0.00 0.00 0.01 0.01 0.01 0.01 0.01 0.02 0.03 0.03 0.02 0.03 0.03 0.04 0.04 0.03 0.03 0.02 0.02 0.02 0.01 0.01 0.01 0.01 0.00 0.00
0.00 0.00 0.01 0.01 0.01 0.02 0.03 0.02 0.01 0.01 0.01 0.01 0.02 0.02 0.01 0.01 0.01 0.00 0.00 0.00 0.00 0.01 0.01 0.01 0.01 0.02 0.02 0.02 0.02 0.04 0.04 0.04 0.03 0.02 0.02 0.02 0.02 0.01 0.01 0.01 0.00 0.00 0.00 0.00
0.01 0.01 0.01 0.01 0.01 0.01 0.02 0.02 0.01 0.01 0.01 0.01 0.01 0.02 0.01 0.01 0.01 0.01 0.01 0.01 0.01 0.01 0.01 0.01 0.01 0.02 0.02 0.03 0.04 0.04 0.03 0.03 0.03 0.02 0.02 0.02 0.02 0.01 0.01 0.00 0.00 0.00 0.00 0.00
0.02 0.02 0.02 0.02 0.02 0.02 0.02 0.02 0.02 0.02 0.01 0.01 0.02 0.02 0.02 0.01 0.01 0.01 0.01 0.01 0.01 0.01 0.01 0.01 0.02 0.02 0.03 0.04 0.05 0.04 0.03 0.03 0.03 0.02 0.02 0.02 0.02 0.01 0.00 0.00 0.00 0.00 0.00 0.00
0.02 0.02 0.01 0.01 0.02 0.03 0.03 0.03 0.03 0.02 0.03 0.02 0.01 0.02 0.02 0.01 0.01 0.01 0.01 0.02 0.01 0.01 0.02 0.02 0.02 0.02 0.03 0.03 0.03 0.02 0.01 0.03 0.04 0.03 0.02 0.02 0.01 0.01 0.01 0.00 0.00 0.00 0.00 0.00
0.01 0.01 0.01 0.01 0.01 0.02 0.02 0.02 0.02 0.02 0.02 0.02 0.01 0.01 0.02 0.02 0.01 0.01 0.01 0.01 0.01 0.01 0.02 0.01 0.01 0.01 0.02 0.02 0.01 0.01 0.02 0.04 0.04 0.03 0.03 0.02 0.01 0.01 0.01 0.01 0.01 0.00 0.00 0.00
0.01 0.01 0.01 0.01 0.01 0.01 0.02 0.02 0.02 0.02 0.02 0.02 0.01 0.01 0.01 0.02 0.02 0.01 0.01 0.01 0.01 0.01 0.02 0.01 0.01 0.01 0.01 0.01 0.01 0.01 0.02 0.03 0.03 0.03 0.03 0.02 0.01 0.01 0.02 0.01 0.01 0.01 0.01 0.01
0.03 0.03 0.03 0.02 0.02 0.02 0.02 0.02 0.02 0.02 0.02 0.02 0.01 0.01 0.01 0.01 0.02 0.02 0.02 0.02 0.03 0.03 0.03 0.02 0.01 0.01 0.01 0.01 0.00 0.01 0.03 0.03 0.02 0.02 0.01 0.01 0.01 0.01 0.02 0.01 0.02 0.01 0.01 0.01
0.03 0.04 0.04 0.04 0.04 0.03 0.03 0.03 0.03 0.03 0.03 0.03 0.01 0.01 0.01 0.02 0.03 0.03 0.03 0.02 0.02 0.02 0.02 0.02 0.01 0.01 0.01 0.00 0.00 0.01 0.03 0.04 0.03 0.01 0.01 0.00 0.01 0.01 0.01 0.01 0.01 0.01 0.01 0.02
0.03 0.03 0.04 0.04 0.04 0.03 0.03 0.03 0.03 0.03 0.03 0.02 0.01 0.01 0.01 0.02 0.03 0.05 0.05 0.04 0.02 0.01 0.01 0.01 0.01 0.01 0.01 0.00 0.01 0.02 0.04 0.05 0.02 0.01 0.01 0.01 0.01 0.01 0.00 0.01 0.01 0.02 0.02 0.02
0.02 0.03 0.03 0.04 0.04 0.04 0.04 0.04 0.05 0.03 0.02 0.02 0.01 0.01 0.01 0.02 0.03 0.05 0.06 0.04 0.02 0.01 0.00 0.00 0.01 0.00 0.00 0.01 0.01 0.02 0.04 0.03 0.01 0.01 0.01 0.01 0.02 0.01 0.01 0.01 0.01 0.02 0.02 0.02
MSLP
1017.71 1017.57 1017.42 1017.31 1017.26 1017.30 1017.42 1017.61 1017.83 1018.06 1018.26 1018.42 1018.51 1018.53 1018.49 1018.40 1018.26 1018.09 1017.87 1017.60 1017.27 1016.86 1016.37 1015.81 1015.17 1014.49 1013.78 1013.08 1012.42 1011.83 1011.31 1010.89 1010.56 1010.31 1010.13 1009.99 1009.87 1009.77 1009.68 1009.59 1009.49 1009.41 1009.33 1009.26
1018.23 1018.08 1017.89 1017.70 1017.55 1017.46 1017.45 1017.53 1017.68 1017.87 1018.09 1018.29 1018.47 1018.59 1018.65 1018.63 1018.54 1018.37 1018.12 1017.80 1017.39 1016.90 1016.35 1015.73 1015.06 1014.36 1013.65 1012.97 1012.33 1011.75 1011.25 1010.84 1010.51 1010.26 1010.08 1009.96 1009.86 1009.79 1009.73 1009.66 1009.59 1009.51 1009.43 1009.35
1018.65 1018.53 1018.33 1018.11 1017.90 1017.74 1017.66 1017.67 1017.76 1017.93 1018.15 1018.38 1018.60 1018.77 1018.87 1018.88 1018.78 1018.58 1018.27 1017.86 1017.37 1016.80 1016.17 1015.50 1014.80 1014.09 1013.40 1012.73 1012.12 1011.57 1011.10 1010.71 1010.40 1010.17 1010.01 1009.90 1009.83 1009.78 1009.73 1009.68 1009.62 1009.53 1009.43 1009.32
1018.92 1018.81 1018.63 1018.42 1018.20 1018.02 1017.91 1017.89 1017.96 1018.12 1018.33 1018.57 1018.79 1018.97 1019.06 1019.05 1018.91 1018.65 1018.27 1017.78 1017.20 1016.56 1015.87 1015.15 1014.43 1013.73 1013.05 1012.42 1011.85 1011.33 1010.90 1010.53 1010.25 1010.04 1009.90 1009.81 1009.76 1009.72 1009.69 1009.63 1009.56 1009.45 1009.31 1009.15
1018.96 1018.87 1018.72 1018.53 1018.34 1018.18 1018.08 1018.06 1018.13 1018.28 1018.48 1018.71 1018.91 1019.07 1019.13 1019.07 1018.88 1018.56 1018.11 1017.56 1016.92 1016.22 1015.49 1014.76 1014.04 1013.35 1012.70 1012.10 1011.56 1011.09 1010.68 1010.35 1010.09 1009.91 1009.78 1009.70 1009.66 1009.63 1009.58 1009.52 1009.42 1009.27 1009.09 1008.87
1018.77 1018.68 1018.55 1018.40 1018.25 1018.14 1018.07 1018.08 1018.16 1018.31 1018.50 1018.70 1018.88 1019.00 1019.02 1018.92 1018.69 1018.32 1017.83 1017.23 1016.56 1015.84 1015.11 1014.38 1013.67 1013.01 1012.39 1011.82 1011.32 1010.88 1010.50 1010.20 1009.96 1009.78 1009.67 1009.59 1009.55 1009.50 1009.44 1009.35 1009.22 1009.04 1008.80 1008.54
1018.39 1018.28 1018.16 1018.05 1017.95 1017.89 1017.87 1017.91 1018.02 1018.17 1018.35 1018.53 1018.68 1018.76 1018.74 1018.61 1018.34 1017.95 1017.45 1016.85 1016.19 1015.48 1014.77 1014.06 1013.39 1012.75 1012.16 1011.63 1011.15 1010.73 1010.38 1010.08 1009.85 1009.69 1009.57 1009.49 1009.42 1009.36 1009.28 1009.16 1008.99 1008.77 1008.50 1008.20
1017.87 1017.74 1017.63 1017.55 1017.50 1017.49 1017.53 1017.61 1017.73 1017.89 1018.05 1018.21 1018.33 1018.37 1018.33 1018.17 1017.90 1017.52 1017.03 1016.46 1015.83 1015.16 1014.49 1013.82 1013.18 1012.57 1012.01 1011.50 1011.04 1010.63 1010.28 1009.99 1009.77 1009.59 1009.47 1009.38 1009.30 1009.21 1009.10 1008.95 1008.75 1008.50 1008.20 1007.87
1017.30 1017.14 1017.04 1016.99 1016.99 1017.04 1017.13 1017.24 1017.39 1017.54 1017.69 1017.82 1017.90 1017.92 1017.85 1017.69 1017.43 1017.07 1016.61 1016.09 1015.51 1014.89 1014.26 1013.64 1013.02 1012.44 1011.89 1011.39 1010.93 1010.52 1010.18 1009.89 1009.66 1009.48 1009.34 1009.24 1009.14 1009.03 1008.90 1008.72 1008.49 1008.22 1007.90 1007.56
1016.72 1016.55 1016.48 1016.47 1016.53 1016.63 1016.76 1016.91 1017.06 1017.21 1017.34 1017.44 1017.48 1017.47 1017.38 1017.22 1016.96 1016.63 1016.22 1015.74 1015.21 1014.64 1014.05 1013.45 1012.86 1012.28 1011.73 1011.22 1010.76 1010.35 1010.00 1009.71 1009.48 1009.30 1009.16 1009.05 1008.94 1008.82 1008.66 1008.46 1008.21 1007.92 1007.59 1007.24
1016.15 1016.01 1015.98 1016.03 1016.15 1016.31 1016.48 1016.66 1016.82 1016.96 1017.06 1017.12 1017.12 1017.08 1016.97 1016.79 1016.55 1016.23 1015.85 1015.41 1014.91 1014.37 1013.80 1013.21 1012.62 1012.03 1011.47 1010.94 1010.47 1010.05 1009.70 1009.42 1009.20 1009.03 1008.90 1008.79 1008.68 1008.55 1008.38 1008.16 1007.89 1007.58 1007.24 1006.88
1015.57 1015.49 1015.54 1015.67 1015.86 1016.08 1016.30 1016.50 1016.67 1016.79 1016.86 1016.87 1016.84 1016.75 1016.62 1016.43 1016.18 1015.87 1015.50 1015.07 1014.59 1014.05 1013.47 1012.86 1012.25 1011.63 1011.05 1010.50 1010.02 1009.60 1009.26 1008.99 1008.80 1008.66 1008.55 1008.46 1008.36 1008.23 1008.05 1007.82 1007.53 1007.19 1006.83 1006.45
1014.95 1014.97 1015.10 1015.33 1015.61 1015.90 1016.17 1016.40 1016.56 1016.67 1016.70 1016.68 1016.61 1016.48 1016.31 1016.10 1015.84 1015.52 1015.14 1014.71 1014.20 1013.64 1013.04 1012.39 1011.74 1011.09 1010.47 1009.91 1009.42 1009.02 1008.70 1008.47 1008.32 1008.22 1008.15 1008.09 1008.01 1007.89 1007.70 1007.45 1007.14 1006.77 1006.36 1005.94
1014.25 1014.39 1014.65 1014.98 1015.35 1015.71 1016.03 1016.28 1016.45 1016.54 1016.55 1016.49 1016.38 1016.22 1016.02 1015.78 1015.49 1015.15 1014.76 1014.29 1013.75 1013.16 1012.50 1011.82 1011.11 1010.43 1009.79 1009.21 1008.73 1008.35 1008.07 1007.90 1007.80 1007.76 1007.74 1007.72 1007.66 1007.54 1007.35 1007.08 1006.73 1006.32 1005.87 1005.40
1013.50 1013.76 1014.14 1014.58 1015.04 1015.47 1015.83 1016.10 1016.28 1016.35 1016.34 1016.25 1016.11 1015.92 1015.69 1015.43 1015.12 1014.75 1014.32 1013.82 1013.24 1012.60 1011.90 1011.16 1010.42 1009.70 1009.05 1008.48 1008.02 1007.68 1007.45 1007.33 1007.30 1007.32 1007.36 1007.37 1007.34 1007.23 1007.02 1006.72 1006.33 1005.88 1005.37 1004.85
1012.73 1013.12 1013.62 1014.16 1014.69 1015.17 1015.56 1015.84 1016.01 1016.07 1016.04 1015.93 1015.77 1015.56 1015.31 1015.02 1014.69 1014.30 1013.84 1013.31 1012.69 1012.00 1011.25 1010.48 1009.71 1008.98 1008.32 1007.77 1007.35 1007.05 1006.89 1006.84 1006.87 1006.94 1007.02 1007.07 1007.05 1006.93 1006.71 1006.38 1005.95 1005.44 1004.89 1004.31
1012.03 1012.54 1013.13 1013.74 1014.33 1014.83 1015.23 1015.51 1015.67 1015.71 1015.65 1015.53 1015.35 1015.12 1014.86 1014.56 1014.22 1013.81 1013.32 1012.76 1012.11 1011.39 1010.62 1009.82 1009.04 1008.31 1007.67 1007.15 1006.77 1006.53 1006.42 1006.43 1006.51 1006.63 1006.74 1006.79 1006.77 1006.64 1006.39 1006.02 1005.55 1005.01 1004.42 1003.80
1011.50 1012.10 1012.76 1013.41 1014.01 1014.51 1014.89 1015.14 1015.27 1015.28 1015.20 1015.05 1014.85 1014.62 1014.35 1014.05 1013.69 1013.27 1012.77 1012.19 1011.53 1010.79 1010.01 1009.22 1008.45 1007.74 1007.12 1006.64 1006.31 1006.11 1006.05 1006.10 1006.21 1006.34 1006.46 1006.51 1006.46 1006.30 1006.02 1005.61 1005.11 1004.54 1003.93 1003.31
1011.20 1011.87 1012.55 1013.21 1013.79 1014.25 1014.58 1014.78 1014.85 1014.82 1014.70 1014.53 1014.32 1014.08 1013.80 1013.50 1013.14 1012.72 1012.22 1011.63 1010.96 1010.23 1009.46 1008.68 1007.93 1007.25 1006.68 1006.24 1005.94 1005.78 1005.75 1005.80 1005.92 1006.04 1006.13 1006.15 1006.06 1005.86 1005.54 1005.11 1004.59 1004.01 1003.40 1002.80
1011.16 1011.85 1012.53 1013.15 1013.67 1014.06 1014.31 1014.43 1014.44 1014.35 1014.20 1014.00 1013.77 1013.52 1013.24 1012.93 1012.58 1012.16 1011.66 1011.08 1010.42 1009.71 1008.96 1008.20 1007.49 1006.85 1006.31 1005.90 1005.63 1005.49 1005.45 1005.50 1005.58 1005.67 1005.71 1005.67 1005.53 1005.29 1004.93 1004.49 1003.97 1003.40 1002.83 1002.28
1011.32 1012.00 1012.64 1013.19 1013.62 1013.92 1014.07 1014.11 1014.04 1013.89 1013.69 1013.46 1013.22 1012.96 1012.68 1012.38 1012.03 1011.61 1011.12 1010.56 1009.92 1009.22 1008.50 1007.78 1007.09 1006.49 1005.98 1005.59 1005.33 1005.18 1005.13 1005.13 1005.17 1005.19 1005.16 1005.06 1004.87 1004.58 1004.21 1003.76 1003.26 1002.74 1002.23 1001.76
1011.59 1012.23 1012.80 1013.26 1013.58 1013.77 1013.82 1013.77 1013.62 1013.42 1013.19 1012.94 1012.68 1012.42 1012.15 1011.85 1011.50 1011.09 1010.62 1010.06 1009.44 1008.76 1008.07 1007.38 1006.72 1006.14 1005.65 1005.27 1005.00 1004.83 1004.73 1004.68 1004.65 1004.60 1004.50 1004.34 1004.10 1003.79 1003.40 1002.98 1002.53 1002.08 1001.67 1001.31
1011.87 1012.44 1012.92 1013.27 1013.48 1013.55 1013.51 1013.37 1013.17 1012.93 1012.68 1012.42 1012.16 1011.91 1011.64 1011.35 1011.01 1010.61 1010.14 1009.60 1008.99 1008.33 1007.65 1006.98 1006.35 1005.78 1005.29 1004.91 1004.62 1004.41 1004.26 1004.15 1004.05 1003.93 1003.77 1003.56 1003.29 1002.97 1002.62 1002.24 1001.87 1001.52 1001.22 1000.98
1012.07 1012.55 1012.91 1013.14 1013.24 1013.22 1013.10 1012.90 1012.67 1012.41 1012.15 1011.91 1011.67 1011.43 1011.18 1010.90 1010.57 1010.18 1009.71 1009.16 1008.56 1007.91 1007.24 1006.57 1005.94 1005.38 1004.88 1004.48 1004.16 1003.91 1003.71 1003.55 1003.39 1003.23 1003.03 1002.80 1002.53 1002.24 1001.94 1001.64 1001.37 1001.14 1000.98 1000.88
1012.13 1012.49 1012.73 1012.85 1012.85 1012.75 1012.58 1012.36 1012.11 1011.87 1011.63 1011.41 1011.21 1011.00 1010.77 1010.50 1010.17 1009.78 1009.30 1008.75 1008.13 1007.48 1006.80 1006.13 1005.49 1004.91 1004.41 1003.98 1003.63 1003.35 1003.12 1002.92 1002.73 1002.54 1002.34 1002.13 1001.90 1001.67 1001.45 1001.26 1001.11 1001.02 1000.99 1001.03
1012.03 1012.27 1012.40 1012.42 1012.34 1012.19 1011.99 1011.76 1011.54 1011.33 1011.13 1010.96 1010.79 1010.62 1010.41 1010.15 1009.82 1009.41 1008.91 1008.34 1007.70 1007.01 1006.31 1005.62 1004.97 1004.38 1003.85 1003.41 1003.04 1002.74 1002.50 1002.29 1002.11 1001.94 1001.77 1001.61 1001.45 1001.31 1001.21 1001.14 1001.13 1001.17 1001.28 1001.44
1011.79 1011.92 1011.94 1011.87 1011.74 1011.56 1011.36 1011.16 1010.98 1010.82 1010.68 1010.56 1010.43 1010.28 1010.08 1009.82 1009.48 1009.04 1008.51 1007.89 1007.22 1006.50 1005.77 1005.05 1004.37 1003.76 1003.23 1002.78 1002.41 1002.12 1001.89 1001.71 1001.57 1001.45 1001.35 1001.27 1001.22 1001.20 1001.22 1001.28 1001.40 1001.58 1001.81 1002.07
Thickness
5700 5706 5707 5703 5703 5703 5697 5689 5677 5676 5675 5676 5677 5677 5677 5675 5673 5670 5667 5664 5660 5656 5653 5650 5647 5646 5644 5643 5642 5640 5638 5636 5635 5635 5634 5634 5633 5632 5632 5632 5631 5629 5626 5624
5693 5705 5704 5698 5700 5699 5695 5690 5683 5678 5673 5680 5679 5678 5673 5670 5668 5666 5664 5661 5656 5654 5651 5647 5645 5643 5641 5639 5638 5636 5635 5633 5633 5632 5631 5629 5629 5628 5627 5627 5626 5625 5622 5620
5675 5689 5691 5680 5688 5689 5683 5682 5679 5668 5670 5676 5673 5671 5668 5665 5664 5662 5660 5658 5654 5651 5648 5645 5643 5641 5638 5637 5635 5634 5632 5631 5630 5629 5627 5627 5626 5625 5623 5622 5622 5621 5619 5616
5667 5671 5664 5678 5694 5691 5681 5676 5677 5673 5673 5672 5670 5669 5667 5664 5660 5657 5655 5654 5651 5649 5646 5643 5642 5639 5637 5635 5633 5631 5630 5628 5627 5626 5625 5624 5623 5622 5620 5620 5619 5618 5616 5613
5658 5657 5664 5679 5687 5684 5675 5666 5671 5668 5668 5669 5669 5664 5661 5662 5659 5655 5653 5651 5649 5647 5645 5642 5639 5637 5634 5632 5631 5629 5627 5626 5625 5624 5623 5622 5620 5619 5619 5618 5617 5615 5614 5611
5656 5653 5651 5665 5684 5689 5676 5657 5666 5665 5662 5662 5661 5648 5650 5658 5656 5653 5651 5648 5647 5646 5644 5640 5638 5635 5632 5630 5628 5626 5625 5624 5624 5623 5621 5620 5619 5618 5618 5617 5616 5614 5612 5609
5651 5647 5656 5672 5682 5681 5654 5650 5662 5660 5659 5657 5653 5649 5652 5655 5653 5652 5650 5648 5646 5644 5641 5639 5637 5635 5631 5628 5626 5625 5624 5623 5622 5621 5620 5619 5618 5618 5617 5616 5614 5612 5609 5607
5644 5640 5647 5672 5672 5659 5654 5659 5659 5658 5657 5655 5654 5654 5653 5652 5650 5649 5647 5646 5645 5642 5639 5637 5636 5633 5630 5628 5627 5625 5623 5621 5620 5620 5620 5620 5618 5618 5617 5615 5612 5610 5607 5604
5647 5648 5660 5668 5665 5664 5661 5657 5656 5654 5654 5653 5651 5650 5649 5648 5647 5646 5645 5644 5642 5640 5637 5635 5634 5633 5629 5628 5627 5625 5622 5620 5619 5619 5619 5619 5618 5617 5615 5613 5610 5608 5605 5601
5648 5654 5658 5661 5662 5662 5659 5657 5656 5654 5653 5651 5648 5648 5646 5645 5644 5643 5643 5642 5640 5638 5635 5633 5633 5632 5630 5629 5628 5625 5622 5620 5619 5618 5618 5618 5617 5617 5615 5612 5610 5607 5604 5601
5641 5648 5651 5655 5656 5656 5655 5655 5654 5653 5652 5650 5647 5645 5645 5643 5643 5642 5642 5640 5639 5636 5634 5633 5633 5631 5631 5630 5628 5625 5622 5621 5619 5618 5617 5617 5617 5616 5615 5615 5613 5609 5605 5602
5634 5642 5640 5644 5651 5652 5650 5649 5650 5650 5649 5648 5647 5644 5643 5642 5642 5641 5640 5639 5637 5635 5634 5633 5633 5632 5632 5631 5629 5626 5623 5621 5620 5619 5618 5618 5617 5617 5618 5616 5615 5613 5608 5604
5643 5645 5643 5645 5647 5648 5646 5647 5648 5648 5646 5644 5644 5644 5642 5640 5640 5639 5639 5638 5637 5636 5635 5634 5633 5633 5633 5632 5631 5627 5624 5623 5622 5621 5620 5619 5618 5617 5615 5615 5615 5612 5609 5605
5644 5641 5638 5640 5640 5643 5644 5645 5645 5645 5645 5644 5643 5642 5640 5638 5638 5638 5637 5637 5637 5636 5635 5634 5633 5633 5634 5633 5631 5629 5627 5626 5624 5623 5622 5621 5620 5619 5617 5614 5611 5609 5608 5606
5639 5638 5635 5637 5638 5639 5640 5640 5639 5639 5640 5640 5640 5639 5638 5636 5636 5637 5637 5637 5636 5634 5634 5634 5634 5634 5635 5634 5632 5630 5628 5627 5626 5625 5624 5623 5622 5621 5619 5616 5613 5609 5606 5604
5633 5633 5633 5632 5632 5634 5635 5635 5634 5635 5636 5636 5635 5636 5636 5635 5635 5636 5636 5635 5633 5632 5633 5634 5634 5636 5636 5634 5632 5631 5630 5630 5628 5627 5626 5625 5624 5622 5620 5617 5614 5610 5607 5603
5624 5623 5624 5624 5626 5627 5629 5631 5631 5632 5632 5632 5632 5633 5633 5633 5632 5633 5633 5634 5633 5633 5634 5635 5636 5637 5637 5636 5634 5633 5631 5630 5630 5628 5627 5627 5625 5624 5622 5618 5615 5611 5608 5605
5623 5623 5622 5622 5621 5622 5625 5628 5629 5629 5629 5630 5632 5632 5631 5629 5629 5630 5632 5632 5632 5633 5635 5636 5637 5638 5638 5637 5636 5634 5633 5631 5630 5630 5629 5628 5627 5626 5623 5620 5616 5612 5608 5603
5618 5618 5618 5619 5620 5620 5622 5624 5625 5627 5628 5629 5629 5629 5629 5629 5630 5630 5631 5631 5631 5632 5635 5638 5638 5638 5638 5638 5637 5635 5634 5633 5632 5631 5631 5630 5629 5627 5625 5621 5617 5613 5608 5603
5612 5613 5614 5615 5616 5616 5618 5621 5623 5624 5626 5626 5627 5627 5627 5628 5630 5630 5630 5630 5632 5635 5637 5638 5638 5638 5639 5639 5638 5637 5636 5635 5634 5633 5632 5631 5629 5628 5625 5622 5618 5613 5608 5603
5605 5606 5608 5609 5611 5613 5615 5617 5620 5621 5623 5625 5625 5625 5626 5628 5629 5629 5628 5629 5634 5637 5638 5638 5638 5639 5640 5639 5639 5638 5637 5637 5636 5635 5634 5632 5631 5629 5626 5622 5618 5613 5608 5602
5597 5599 5602 5604 5606 5608 5612 5615 5618 5620 5622 5624 5625 5625 5626 5626 5628 5629 5630 5632 5635 5637 5637 5638 5639 5640 5641 5640 5640 5639 5639 5639 5638 5637 5636 5634 5632 5630 5626 5622 5618 5614 5608 5602
5590 5593 5596 5599 5601 5604 5609 5612 5615 5618 5621 5623 5624 5625 5626 5627 5629 5629 5630 5634 5637 5637 5638 5639 5640 5640 5641 5640 5640 5640 5640 5640 5639 5639 5638 5637 5634 5631 5627 5623 5618 5614 5607 5601
5584 5587 5591 5595 5598 5600 5603 5608 5613 5617 5620 5622 5624 5626 5627 5628 5629 5632 5635 5636 5638 5638 5639 5640 5640 5640 5640 5641 5641 5642 5642 5642 5641 5641 5641 5639 5636 5632 5628 5623 5618 5613 5607 5601
5579 5582 5585 5589 5592 5595 5600 5605 5609 5614 5617 5620 5623 5626 5628 5630 5630 5633 5636 5638 5639 5639 5640 5641 5641 5642 5642 5642 5643 5644 5644 5644 5644 5643 5641 5639 5635 5631 5627 5623 5618 5612 5606 5600
5573 5576 5580 5584 5588 5591 5596 5600 5604 5609 5613 5617 5620 5624 5627 5629 5632 5634 5636 5638 5640 5640 5641 5642 5643 5643 5644 5644 5645 5646 5646 5646 5645 5643 5642 5639 5636 5631 5627 5622 5617 5612 5606 5599
5567 5571 5575 5579 5584 5587 5591 5596 5600 5606 5610 5614 5617 5621 5625 5628 5631 5634 5636 5639 5640 5642 5643 5644 5645 5646 5646 5646 5646 5647 5647 5647 5646 5644 5642 5639 5636 5632 5627 5622 5617 5611 5604 5597